Location: Aufkirchen
(47.9603°N, 11.3653°E)
Time: 23:37:07
(UTC+01:00)

deb Explorer IX - All Passes

Search period start: 25 November 2020 00:00
Search period end: 05 December 2020 00:00
Orbit: 538 x 1104 km, 38.8° (Epoch: 25 November)

Date Brightness Start Highest point End Pass type
(mag) Time Alt. Az. Time Alt. Az. Time Alt. Az.
25 Nov - 17:20:27 10° S 17:22:38 12° SSE 17:24:42 10° SE visible
25 Nov - 19:04:36 10° SW 19:08:40 24° S 19:12:18 10° ESE visible
25 Nov - 20:50:55 10° WSW 20:54:44 25° S 20:58:12 10° SE visible
25 Nov - 22:38:33 10° SW 22:40:32 13° SSW 22:42:28 10° S night (unlit)
26 Nov - 16:56:47 10° S 16:59:21 13° SSE 17:01:46 10° SE visible
26 Nov - 18:41:09 10° SW 18:45:25 25° S 18:49:13 10° ESE visible
26 Nov - 20:27:32 10° WSW 20:31:31 25° S 20:35:06 10° SE visible
26 Nov - 22:15:11 10° SW 22:17:19 13° SSW 22:19:22 10° S night (unlit)
27 Nov - 16:33:07 10° S 16:36:03 14° SSE 16:38:47 10° SE daylight
27 Nov - 18:17:39 10° SW 18:22:08 26° S 18:26:06 10° ESE visible
27 Nov - 20:04:06 10° WSW 20:08:16 26° S 20:11:59 10° SE visible
27 Nov - 21:51:48 10° WSW 21:54:06 14° SSW 21:56:17 10° S night (unlit)
28 Nov - 16:09:28 10° S 16:12:44 15° SSE 16:15:46 10° ESE daylight
28 Nov - 17:54:09 10° SW 17:58:52 27° S 18:03:01 10° ESE visible
28 Nov - 19:40:40 10° WSW 19:45:01 27° S 19:48:53 10° SE visible
28 Nov - 21:28:23 10° WSW 21:30:51 14° SSW 21:33:11 10° S night (unlit)
29 Nov - 15:45:50 10° S 15:49:24 16° SSE 15:52:41 10° ESE daylight
29 Nov - 17:30:37 10° SW 17:35:33 28° S 17:39:53 10° ESE visible
29 Nov - 19:17:11 10° WSW 19:21:45 28° S 19:25:46 10° SE visible
29 Nov - 21:04:55 10° WSW 21:07:36 15° SSW 21:10:07 10° S visible
30 Nov - 15:22:12 10° SSW 15:26:02 17° SSE 15:29:35 10° ESE daylight
30 Nov - 17:07:05 10° SW 17:12:14 29° S 17:16:45 10° ESE visible
30 Nov - 18:53:42 10° WSW 18:58:28 29° S 19:02:39 10° SE visible
30 Nov - 20:41:26 10° WSW 20:44:20 15° SSW 20:47:02 10° S visible
01 Dec - 14:58:34 10° SSW 15:02:40 17° SSE 15:06:27 10° ESE daylight
01 Dec - 16:43:32 10° SW 16:48:53 30° S 16:53:36 10° ESE daylight
01 Dec - 18:30:11 10° WSW 18:35:10 30° S 18:39:31 10° SE visible
01 Dec - 20:17:56 10° WSW 20:21:04 16° SSW 20:23:57 10° S visible
02 Dec - 14:34:57 10° SSW 14:39:16 18° SSE 14:43:17 10° ESE daylight
02 Dec - 16:19:58 10° SW 16:25:32 31° S 16:30:26 10° ESE daylight
02 Dec - 18:06:40 10° WSW 18:11:51 31° S 18:16:22 10° SE visible
02 Dec - 19:54:24 10° WSW 19:57:46 17° SSW 20:00:51 10° SSE visible
03 Dec - 14:11:20 10° SSW 14:15:52 19° SSE 14:20:05 10° ESE daylight
03 Dec - 15:56:24 10° SW 16:02:09 32° S 16:07:14 10° ESE daylight
03 Dec - 17:43:07 10° WSW 17:48:30 32° S 17:53:12 10° SE visible
03 Dec - 19:30:51 10° WSW 19:34:27 18° SSW 19:37:44 10° SSE visible
04 Dec - 13:47:43 10° SSW 13:52:26 19° SSE 13:56:51 10° ESE daylight
04 Dec - 15:32:50 10° SW 15:38:45 33° S 15:44:01 10° ESE daylight
04 Dec - 17:19:33 10° WSW 17:25:09 33° S 17:30:01 10° SE visible
04 Dec - 19:07:17 10° WSW 19:11:08 18° SSW 19:14:36 10° SSE visible
